Weather History for KFLL - August, 2012

Change the Weather History Date:

Friday, August 10, 2012

  Actual Average Record
Temperature  
Mean Temperature 81 °F 85 °F  
Max Temperature 86 °F 91 °F 98 °F (1963)
Min Temperature 75 °F 79 °F 68 °F (1924)
Degree Days  
Heating Degree Days 0 0  
Month to date heating degree days 0 0  
Since 1 June heating degree days 0 0  
Since 1 July heating degree days 0 0  
Cooling Degree Days 16 20  
Month to date cooling degree days 195 200  
Year to date cooling degree days 2794 2759  
Since 1 June cooling degree days 1289 1341  
Growing Degree Days 31 (Base 50)    
Moisture  
Dew Point 73 °F    
Average Humidity 80    
Maximum Humidity 91    
Minimum Humidity 69    
Precipitation  
Precipitation 0.15 in 0.23 in 3.35 in (2003)
Month to date precipitation 1.94 2.19  
Year to date precipitation 35.01 35.82  
Snow  
Snow 0.00 in - - ()
Month to date snowfall 0.0  
Since 1 June snowfall 0.0  
Since 1 July snowfall 0.0  
Snow Depth 0.00 in    
Sea Level Pressure  
Sea Level Pressure 29.98 in    
Wind  
Wind Speed 8 mph (SSE)    
Max Wind Speed 20 mph    
Max Gust Speed 23 mph    
Visibility 9 miles    
Events Rain , Thunderstorm    
T = Trace of Precipitation, MM = Missing Value Source: NWS Daily Summary

Daily Weather History Graph

Daily Weather History Graph

Search for Another Location

Airport or City:

Trip Planner

Search our weather history database for the weather conditions in past years. The results will help you decide how hot, cold, wet, or windy it might be!

Date:

Astronomy

Aug. 10, 2012 Rise Set
Actual Time 6:51 AM EDT 8:00 PM EDT
Civil Twilight 6:26 AM EDT 8:24 PM EDT
Nautical Twilight 5:57 AM EDT 8:53 PM EDT
Astronomical Twilight 5:28 AM EDT 9:22 PM EDT
Moon 12:44 AM EDT (8/10) 2:30 PM EDT (8/10)
Length of Visible Light 13h 57m
Length of Day
13h 09m
Last Quarter, 42% of the Moon is Illuminated
Aug 10
Last Quarter
Aug 17
New
Aug 24
First Quarter
Aug 31
Full
Sep 8
Last Quarter

Hourly Weather History & Observations

Time (EDT) Temp. Heat Index Dew Point Humidity Pressure Visibility Wind Dir Wind Speed Gust Speed Precip Events Conditions
12:53 AM 82.0 °F 87.9 °F 73.9 °F 76% 30.00 in 10.0 mi Calm Calm - N/A   Scattered Clouds
1:53 AM 82.0 °F 87.4 °F 73.0 °F 74% 29.98 in 10.0 mi South 4.6 mph - N/A   Scattered Clouds
2:53 AM 82.0 °F 87.4 °F 73.0 °F 74% 29.96 in 10.0 mi SSE 6.9 mph - N/A   Scattered Clouds
3:53 AM 82.0 °F 87.4 °F 73.0 °F 74% 29.94 in 10.0 mi SE 8.1 mph - N/A   Scattered Clouds
4:53 AM 81.0 °F 85.8 °F 73.0 °F 77% 29.94 in 10.0 mi SE 3.5 mph - N/A   Partly Cloudy
5:53 AM 81.0 °F 85.8 °F 73.0 °F 77% 29.94 in 10.0 mi ESE 4.6 mph - N/A   Scattered Clouds
6:53 AM 82.0 °F 87.4 °F 73.0 °F 74% 29.95 in 10.0 mi SE 9.2 mph - N/A   Partly Cloudy
7:53 AM 82.9 °F 90.2 °F 75.0 °F 77% 29.97 in 10.0 mi ESE 8.1 mph - N/A   Partly Cloudy
8:53 AM 82.9 °F 88.0 °F 72.0 °F 69% 29.99 in 10.0 mi ESE 10.4 mph - N/A   Scattered Clouds
9:53 AM 84.9 °F 91.4 °F 73.0 °F 67% 29.98 in 10.0 mi ESE 10.4 mph - N/A   Scattered Clouds
10:53 AM 84.9 °F 91.4 °F 73.0 °F 67% 29.99 in 10.0 mi ESE 10.4 mph - N/A   Scattered Clouds
11:34 AM 82.4 °F 89.5 °F 75.2 °F 79% 30.00 in 8.0 mi South 16.1 mph 21.9 mph N/A   Mostly Cloudy
11:40 AM 78.8 °F - 75.2 °F 89% 30.00 in 1.5 mi SSE 15.0 mph - 0.08 in Rain Heavy Rain
11:48 AM 78.8 °F - 75.2 °F 89% 30.00 in 3.0 mi SSW 8.1 mph 19.6 mph 0.14 in Rain Rain
11:53 AM 79.0 °F - 75.9 °F 90% 30.00 in 7.0 mi SW 10.4 mph - 0.14 in Rain Light Rain
12:07 PM 78.8 °F - 73.4 °F 83% 30.00 in 10.0 mi SSW 5.8 mph - 0.00 in   Mostly Cloudy
12:16 PM 78.8 °F - 73.4 °F 83% 30.00 in 10.0 mi SSW 6.9 mph - 0.00 in Thunderstorm Thunderstorm
12:32 PM 80.6 °F 86.2 °F 75.2 °F 84% 30.01 in 10.0 mi WSW 6.9 mph - 0.00 in   Mostly Cloudy
12:53 PM 81.0 °F 86.7 °F 75.0 °F 82% 29.99 in 10.0 mi West 3.5 mph - 0.00 in   Scattered Clouds
1:53 PM 84.0 °F 91.2 °F 73.9 °F 72% 29.99 in 10.0 mi Variable 4.6 mph - N/A   Mostly Cloudy
2:53 PM 84.0 °F 91.2 °F 73.9 °F 72% 29.97 in 10.0 mi SE 10.4 mph - N/A   Scattered Clouds
3:38 PM 80.6 °F 85.4 °F 73.4 °F 79% 29.97 in 10.0 mi SSE 15.0 mph 21.9 mph N/A   Mostly Cloudy
3:53 PM 78.1 °F - 71.1 °F 79% 29.97 in 7.0 mi South 8.1 mph 18.4 mph 0.01 in Rain Light Rain
4:53 PM 79.0 °F - 72.0 °F 79% 29.94 in 10.0 mi South 8.1 mph - 0.00 in   Scattered Clouds
5:53 PM 80.1 °F 84.2 °F 73.0 °F 79% 29.95 in 10.0 mi SSE 8.1 mph - N/A   Partly Cloudy
6:53 PM 81.0 °F 85.2 °F 72.0 °F 74% 29.96 in 10.0 mi SSE 9.2 mph - N/A   Partly Cloudy
7:53 PM 81.0 °F 85.8 °F 73.0 °F 77% 29.99 in 10.0 mi SE 9.2 mph - N/A   Scattered Clouds
8:53 PM 81.0 °F 85.8 °F 73.0 °F 77% 29.98 in 10.0 mi ESE 13.8 mph - N/A   Mostly Cloudy
9:53 PM 80.1 °F 84.2 °F 73.0 °F 79% 29.99 in 10.0 mi SE 8.1 mph - N/A   Scattered Clouds
10:53 PM 80.1 °F 84.2 °F 73.0 °F 79% 29.99 in 10.0 mi SE 9.2 mph - N/A   Partly Cloudy
11:53 PM 80.6 °F 85.4 °F 73.4 °F 79% 29.99 in 10.0 mi South 6.9 mph - N/A   Partly Cloudy